Location: Unspecified
(44.0704°N, 88.6889°W)
Time: 22:10:25
(UTC+02:00)

Altair - Pass Details

Date: 24 June 2019
Orbit: 1501 x 1683 km, 47.2° (Epoch: 20 July)

Event Time Altitude Azimuth Distance (km) Brightness Sun altitude
Rises 03:57:06 0° 243° (WSW) 4,691 10.4 -3.1°
Reaches altitude 10° 04:00:05 10° 243° (WSW) 3,730 9.9 -3.5°
Maximum altitude 04:09:35 85° 157° (SSE) 1,605 7.6 -4.8°
Drops below altitude 10° 04:19:32 10° 70° (ENE) 3,884 9.3 -6.2°
Sets 04:22:43 0° 70° (ENE) 4,892 9.9 -6.6°
